Flag for Sweden Weather past 2 weeks in Gävle, Sweden

Now
53 °F

Sunny.


Feels Like: 52 °F
Forecast: 43 / 56 °F
Wind: 5 mph from North

Location: Films Kyrkby

Current Time: Apr 19, 2015 at 1:19:35 PM

Latest Report: Apr 19, 2015 at 12:00 PM


Visibility: 31 mi

Pressure: 30.08 "Hg

Humidity: 51%

Dew point: 35 °F

Location of GävleLocation

Historic Weather in Gävle — Graph

°F

Gävle temperature yesterday

Maximum temperature yesterday: 49 °F (at 2:00 PM)
Minimum temperature yesterday: 26 °F (at 4:00 AM)
Average temperature yesterday: 39 °F

Past Weeks' High & Low Weather Summary

 TemperatureHumidityPressure
High62 °F (Apr 10, 4:00 PM)99% (Apr 5, 10:00 PM)30.36 "Hg (Apr 5, 10:00 PM)
Low25 °F (Apr 6, 6:00 AM)27% (Apr 8, 2:00 PM)29.32 "Hg (Apr 15, 7:00 PM)
Average42 °F69%29.92 "Hg
* Reported Apr 4 12:00 Noon — Apr 19 12:00 Noon, Gävle, Weather by CustomWeather, © 2015

Note: Actual official high and low records may vary slightly from our data, if they occured in-between our weather recording intervals... More about our weather records

Advertising

Gävle weather history for previous 24 hours

 ConditionsComfort  
Time TempWeatherWind HumidityBarometerVisibility
12:00 PM
Sun, Apr 19
53 °FSunny.5 mph51%30.08 "Hg31 mi
11:00 AM50 °FPassing clouds.5 mph59%30.10 "Hg28 mi
10:00 AM46 °FPassing clouds.3 mph68%30.11 "Hg31 mi
9:00 AM43 °FPassing clouds.3 mph76%30.13 "Hg31 mi
8:00 AM41 °FSunny.2 mph82%30.14 "Hg31 mi
7:00 AM38 °FSunny.1 mph89%30.15 "Hg31 mi
6:00 AM35 °FSunny.1 mph94%30.15 "Hg31 mi
4:00 AM34 °FClear.1 mph95%30.16 "Hg31 mi
3:00 AM37 °FClear.1 mph89%30.15 "Hg31 mi
2:00 AM40 °FOvercast.1 mph81%30.16 "Hg31 mi
1:00 AM40 °FOvercast.1 mph80%30.16 "Hg31 mi
12:00 AM36 °FOvercast.No wind86%30.15 "Hg31 mi
11:00 PM
Sat, Apr 18
35 °FOvercast.No wind86%30.14 "Hg31 mi
10:00 PM38 °FOvercast.No wind80%30.12 "Hg31 mi
9:00 PM40 °FOvercast.1 mph75%30.12 "Hg31 mi
8:00 PM41 °FOvercast.1 mph70%30.12 "Hg31 mi
7:00 PM42 °FOvercast.1 mph66%30.11 "Hg31 mi
6:00 PM43 °FOvercast.2 mph62%30.10 "Hg31 mi
5:00 PM44 °FOvercast.3 mph60%30.10 "Hg31 mi
4:00 PM48 °FOvercast.3 mph51%30.10 "Hg31 mi
3:00 PM48 °FSunny.5 mph48%30.10 "Hg31 mi
2:00 PM49 °FScattered clouds.5 mph50%30.10 "Hg28 mi
1:00 PM48 °FPassing clouds.3 mph52%30.11 "Hg25 mi
Weather by CustomWeather, © 2015

See weather overviewHow to use our weather pages